Time,TemperatureF,DewpointF,PressureIn,WindDirection,WindDirectionDegrees,WindSpeedMPH,WindSpeedGustMPH,Humidity,HourlyPrecipIn,Conditions,Clouds,dailyrainin,SoftwareType,DateUTC
2013-04-17 00:00:00,73.8,15.6,29.70,WSW,248,12.3,14.3,11,0.00,,,0.00,WUHU216HW,2013-04-17 06:00:00,
2013-04-17 00:05:00,73.6,15.5,29.70,West,270,14.3,14.3,11,0.00,,,0.00,WUHU216HW,2013-04-17 06:05:00,
2013-04-17 00:10:00,73.4,15.3,29.70,WSW,248,15.4,15.4,11,0.00,,,0.00,WUHU216HW,2013-04-17 06:10:00,
2013-04-17 00:15:00,73.3,15.2,29.70,WSW,248,14.1,15.4,11,0.00,,,0.00,WUHU216HW,2013-04-17 06:15:00,
2013-04-17 00:20:00,73.3,15.2,29.70,WSW,248,7.4,14.8,11,0.00,,,0.00,WUHU216HW,2013-04-17 06:20:00,
2013-04-17 00:25:00,73.1,15.0,29.71,West,270,12.1,14.8,11,0.00,,,0.00,WUHU216HW,2013-04-17 06:25:00,
2013-04-17 00:30:00,73.1,15.0,29.70,WSW,248,13.2,13.2,11,0.00,,,0.00,WUHU216HW,2013-04-17 06:30:00,
2013-04-17 00:35:00,72.9,14.9,29.70,WSW,248,11.6,13.2,11,0.00,,,0.00,WUHU216HW,2013-04-17 06:35:00,
2013-04-17 00:40:00,72.7,14.8,29.70,West,270,8.9,13.9,11,0.00,,,0.00,WUHU216HW,2013-04-17 06:40:00,
2013-04-17 00:45:00,72.7,14.8,29.70,West,270,11.4,13.9,11,0.00,,,0.00,WUHU216HW,2013-04-17 06:45:00,
2013-04-17 00:50:00,72.5,14.6,29.70,WSW,248,10.5,12.8,11,0.00,,,0.00,WUHU216HW,2013-04-17 06:50:00,
2013-04-17 00:55:00,72.4,16.1,29.70,West,270,10.1,12.8,12,0.00,,,0.00,WUHU216HW,2013-04-17 06:55:00,
2013-04-17 01:00:00,72.4,16.1,29.70,West,270,11.2,13.4,12,0.00,,,0.00,WUHU216HW,2013-04-17 07:00:00,
2013-04-17 01:05:00,72.2,15.9,29.70,WSW,248,7.6,13.4,12,0.00,,,0.00,WUHU216HW,2013-04-17 07:05:00,
2013-04-17 01:10:00,72.2,15.9,29.71,West,270,6.3,11.4,12,0.00,,,0.00,WUHU216HW,2013-04-17 07:10:00,
2013-04-17 01:15:00,72.0,15.8,29.71,SW,225,3.6,11.4,12,0.00,,,0.00,WUHU216HW,2013-04-17 07:15:00,
2013-04-17 01:20:00,71.8,15.7,29.71,WSW,248,8.7,12.8,12,0.00,,,0.00,WUHU216HW,2013-04-17 07:20:00,
2013-04-17 01:25:00,71.6,15.5,29.71,WSW,248,9.2,12.8,12,0.00,,,0.00,WUHU216HW,2013-04-17 07:25:00,
2013-04-17 01:30:00,71.6,15.5,29.71,SW,225,8.5,12.8,12,0.00,,,0.00,WUHU216HW,2013-04-17 07:30:00,
2013-04-17 01:35:00,71.5,15.3,29.71,WSW,248,8.3,12.3,12,0.00,,,0.00,WUHU216HW,2013-04-17 07:35:00,
2013-04-17 01:40:00,71.5,15.3,29.71,WSW,248,7.6,12.3,12,0.00,,,0.00,WUHU216HW,2013-04-17 07:40:00,
2013-04-17 01:45:00,71.3,16.8,29.71,WSW,248,12.3,12.8,13,0.00,,,0.00,WUHU216HW,2013-04-17 07:45:00,
2013-04-17 01:50:00,71.3,16.8,29.71,WSW,248,7.2,12.8,13,0.00,,,0.00,WUHU216HW,2013-04-17 07:50:00,
2013-04-17 01:55:00,71.1,16.7,29.71,WSW,248,10.3,10.5,13,0.00,,,0.00,WUHU216HW,2013-04-17 07:55:00,
2013-04-17 02:00:00,70.9,16.6,29.71,SW,225,8.5,10.5,13,0.00,,,0.00,WUHU216HW,2013-04-17 08:00:00,
2013-04-17 02:05:00,70.9,16.6,29.70,West,270,8.3,9.2,13,0.00,,,0.00,WUHU216HW,2013-04-17 08:05:00,
2013-04-17 02:10:00,70.7,16.4,29.70,WSW,248,5.1,8.7,13,0.00,,,0.00,WUHU216HW,2013-04-17 08:10:00,
2013-04-17 02:15:00,70.7,16.4,29.70,West,270,4.9,8.7,13,0.00,,,0.00,WUHU216HW,2013-04-17 08:15:00,
2013-04-17 02:20:00,70.6,16.2,29.70,WSW,248,9.8,9.8,13,0.00,,,0.00,WUHU216HW,2013-04-17 08:20:00,
2013-04-17 02:25:00,70.6,17.8,29.70,SW,225,3.4,9.8,14,0.00,,,0.00,WUHU216HW,2013-04-17 08:25:00,
2013-04-17 02:30:00,70.4,17.7,29.70,WSW,248,4.9,6.9,14,0.00,,,0.00,WUHU216HW,2013-04-17 08:30:00,
2013-04-17 02:35:00,70.2,19.2,29.70,West,270,4.0,5.4,15,0.00,,,0.00,WUHU216HW,2013-04-17 08:35:00,
2013-04-17 02:40:00,70.2,19.2,29.70,West,270,5.1,5.4,15,0.00,,,0.00,WUHU216HW,2013-04-17 08:40:00,
2013-04-17 02:45:00,70.0,19.1,29.70,WSW,248,6.3,6.3,15,0.00,,,0.00,WUHU216HW,2013-04-17 08:45:00,
2013-04-17 02:50:00,69.8,18.9,29.70,West,270,4.3,6.3,15,0.00,,,0.00,WUHU216HW,2013-04-17 08:50:00,
2013-04-17 02:55:00,69.8,18.9,29.70,West,270,4.5,6.9,15,0.00,,,0.00,WUHU216HW,2013-04-17 08:55:00,
2013-04-17 03:00:00,69.8,18.9,29.70,WSW,248,6.5,6.9,15,0.00,,,0.00,WUHU216HW,2013-04-17 09:00:00,
2013-04-17 03:05:00,69.7,18.8,29.69,West,270,4.5,6.7,15,0.00,,,0.00,WUHU216HW,2013-04-17 09:05:00,
2013-04-17 03:10:00,69.5,18.6,29.70,West,270,5.4,7.4,15,0.00,,,0.00,WUHU216HW,2013-04-17 09:10:00,
2013-04-17 03:15:00,69.5,18.6,29.70,WSW,248,7.4,7.4,15,0.00,,,0.00,WUHU216HW,2013-04-17 09:15:00,
2013-04-17 03:20:00,69.3,18.5,29.69,West,270,5.4,8.9,15,0.00,,,0.00,WUHU216HW,2013-04-17 09:20:00,
2013-04-17 03:25:00,69.1,18.4,29.69,West,270,6.9,8.9,15,0.00,,,0.00,WUHU216HW,2013-04-17 09:25:00,
2013-04-17 03:30:00,68.9,18.3,29.69,WSW,248,4.0,6.9,15,0.00,,,0.00,WUHU216HW,2013-04-17 09:30:00,
2013-04-17 03:35:00,68.9,18.3,29.69,West,270,4.0,6.7,15,0.00,,,0.00,WUHU216HW,2013-04-17 09:35:00,
2013-04-17 03:40:00,68.8,19.7,29.69,SW,225,3.8,6.7,16,0.00,,,0.00,WUHU216HW,2013-04-17 09:40:00,
2013-04-17 03:45:00,68.6,19.5,29.69,WSW,248,4.0,6.5,16,0.00,,,0.00,WUHU216HW,2013-04-17 09:45:00,
2013-04-17 03:50:00,68.4,19.5,29.69,SSW,203,3.4,6.5,16,0.00,,,0.00,WUHU216HW,2013-04-17 09:50:00,
2013-04-17 03:55:00,68.4,19.5,29.69,South,180,2.2,5.6,16,0.00,,,0.00,WUHU216HW,2013-04-17 09:55:00,
2013-04-17 04:00:00,68.2,19.3,29.69,WSW,248,4.5,4.7,16,0.00,,,0.00,WUHU216HW,2013-04-17 10:00:00,
2013-04-17 04:05:00,68.2,19.3,29.69,SW,225,6.7,6.7,16,0.00,,,0.00,WUHU216HW,2013-04-17 10:05:00,
2013-04-17 04:10:00,68.0,19.2,29.69,SW,225,6.0,6.7,16,0.00,,,0.00,WUHU216HW,2013-04-17 10:10:00,
2013-04-17 04:15:00,68.0,19.2,29.69,WSW,248,5.4,6.3,16,0.00,,,0.00,WUHU216HW,2013-04-17 10:15:00,
2013-04-17 04:20:00,67.7,18.8,29.69,WSW,248,6.3,7.4,16,0.00,,,0.00,WUHU216HW,2013-04-17 10:20:00,
2013-04-17 04:25:00,67.7,18.8,29.69,WSW,248,7.4,8.3,16,0.00,,,0.00,WUHU216HW,2013-04-17 10:25:00,
2013-04-17 04:30:00,67.5,18.7,29.69,WSW,248,7.6,8.3,16,0.00,,,0.00,WUHU216HW,2013-04-17 10:30:00,
2013-04-17 04:35:00,67.3,18.6,29.69,WSW,248,6.3,7.6,16,0.00,,,0.00,WUHU216HW,2013-04-17 10:35:00,
2013-04-17 04:40:00,67.3,20.2,29.69,WSW,248,8.7,8.7,17,0.00,,,0.00,WUHU216HW,2013-04-17 10:40:00,
2013-04-17 04:45:00,67.1,20.0,29.69,WSW,248,6.3,8.7,17,0.00,,,0.00,WUHU216HW,2013-04-17 10:45:00,
2013-04-17 04:50:00,67.0,19.8,29.69,WSW,248,3.8,7.4,17,0.00,,,0.00,WUHU216HW,2013-04-17 10:50:00,
2013-04-17 04:55:00,67.0,19.8,29.69,WSW,248,3.6,7.2,17,0.00,,,0.00,WUHU216HW,2013-04-17 10:55:00,
2013-04-17 05:00:00,67.0,19.8,29.69,WSW,248,4.3,6.3,17,0.00,,,0.00,WUHU216HW,2013-04-17 11:00:00,
2013-04-17 05:05:00,66.8,19.6,29.69,SW,225,3.1,5.1,17,0.00,,,0.00,WUHU216HW,2013-04-17 11:05:00,
2013-04-17 05:10:00,66.8,21.2,29.70,WSW,248,0.9,3.4,18,0.00,,,0.00,WUHU216HW,2013-04-17 11:10:00,
2013-04-17 05:15:00,66.6,21.1,29.69,WSW,248,1.1,3.1,18,0.00,,,0.00,WUHU216HW,2013-04-17 11:15:00,
2013-04-17 05:20:00,66.6,21.1,29.70,West,270,1.1,3.1,18,0.00,,,0.00,WUHU216HW,2013-04-17 11:20:00,
2013-04-17 05:25:00,66.6,25.3,29.70,WSW,248,2.2,3.4,21,0.00,,,0.00,WUHU216HW,2013-04-17 11:25:00,
2013-04-17 05:30:00,66.2,23.9,29.70,West,270,2.7,5.1,20,0.00,,,0.00,WUHU216HW,2013-04-17 11:30:00,
2013-04-17 05:35:00,66.1,22.2,29.70,WSW,248,2.5,5.1,19,0.00,,,0.00,WUHU216HW,2013-04-17 11:35:00,
2013-04-17 05:40:00,66.1,22.2,29.70,WSW,248,2.7,5.4,19,0.00,,,0.00,WUHU216HW,2013-04-17 11:40:00,
2013-04-17 05:45:00,66.1,22.2,29.69,SW,225,3.8,5.4,19,0.00,,,0.00,WUHU216HW,2013-04-17 11:45:00,
2013-04-17 05:50:00,65.9,22.1,29.69,WSW,248,3.4,4.7,19,0.00,,,0.00,WUHU216HW,2013-04-17 11:50:00,
2013-04-17 05:55:00,65.9,22.1,29.70,SW,225,2.9,5.6,19,0.00,,,0.00,WUHU216HW,2013-04-17 11:55:00,
2013-04-17 06:00:00,65.9,22.1,29.70,WSW,248,6.0,6.0,19,0.00,,,0.00,WUHU216HW,2013-04-17 12:00:00,
2013-04-17 06:05:00,65.7,22.0,29.70,SW,225,1.8,6.0,19,0.00,,,0.00,WUHU216HW,2013-04-17 12:05:00,
2013-04-17 06:10:00,65.7,22.0,29.70,WSW,248,3.1,5.6,19,0.00,,,0.00,WUHU216HW,2013-04-17 12:10:00,
2013-04-17 06:15:00,65.5,21.8,29.70,WSW,248,5.4,5.4,19,0.00,,,0.00,WUHU216HW,2013-04-17 12:15:00,
2013-04-17 06:20:00,65.5,21.8,29.70,West,270,4.0,5.4,19,0.00,,,0.00,WUHU216HW,2013-04-17 12:20:00,
2013-04-17 06:25:00,65.5,21.8,29.70,WSW,248,3.6,5.4,19,0.00,,,0.00,WUHU216HW,2013-04-17 12:25:00,
2013-04-17 06:30:00,65.5,21.8,29.70,WSW,248,3.6,4.0,19,0.00,,,0.00,WUHU216HW,2013-04-17 12:30:00,
2013-04-17 06:35:00,65.3,21.6,29.70,West,270,5.1,5.1,19,0.00,,,0.00,WUHU216HW,2013-04-17 12:35:00,
2013-04-17 06:40:00,65.3,21.6,29.70,West,270,4.3,5.6,19,0.00,,,0.00,WUHU216HW,2013-04-17 12:40:00,
2013-04-17 06:45:00,65.3,21.6,29.70,West,270,3.6,5.6,19,0.00,,,0.00,WUHU216HW,2013-04-17 12:45:00,
2013-04-17 06:50:00,65.2,21.5,29.70,WSW,248,3.6,5.4,19,0.00,,,0.00,WUHU216HW,2013-04-17 12:50:00,
2013-04-17 06:55:00,65.2,21.5,29.70,WSW,248,3.4,5.4,19,0.00,,,0.00,WUHU216HW,2013-04-17 12:55:00,
2013-04-17 07:00:00,65.3,23.2,29.70,WSW,248,2.5,4.7,20,0.00,,,0.00,WUHU216HW,2013-04-17 13:00:00,
2013-04-17 07:05:00,65.2,23.0,29.70,SW,225,4.9,4.9,20,0.00,,,0.00,WUHU216HW,2013-04-17 13:05:00,
2013-04-17 07:10:00,65.2,24.0,29.70,WSW,248,4.0,5.4,21,0.00,,,0.00,WUHU216HW,2013-04-17 13:10:00,
2013-04-17 07:15:00,65.3,24.2,29.71,WSW,248,6.3,6.3,21,0.00,,,0.00,WUHU216HW,2013-04-17 13:15:00,
2013-04-17 07:20:00,65.3,24.2,29.71,WSW,248,1.3,6.3,21,0.00,,,0.00,WUHU216HW,2013-04-17 13:20:00,
2013-04-17 07:25:00,65.3,24.2,29.71,WSW,248,4.3,5.8,21,0.00,,,0.00,WUHU216HW,2013-04-17 13:25:00,
2013-04-17 07:30:00,65.3,24.2,29.71,West,270,6.3,6.3,21,0.00,,,0.00,WUHU216HW,2013-04-17 13:30:00,
2013-04-17 07:35:00,65.3,24.2,29.71,WSW,248,4.5,6.5,21,0.00,,,0.00,WUHU216HW,2013-04-17 13:35:00,
2013-04-17 07:40:00,65.5,24.4,29.71,WSW,248,6.5,6.5,21,0.00,,,0.00,WUHU216HW,2013-04-17 13:40:00,
2013-04-17 07:45:00,65.5,24.4,29.71,WSW,248,8.3,8.3,21,0.00,,,0.00,WUHU216HW,2013-04-17 13:45:00,
2013-04-17 07:50:00,65.7,24.5,29.71,WSW,248,3.8,9.2,21,0.00,,,0.00,WUHU216HW,2013-04-17 13:50:00,
2013-04-17 07:55:00,65.9,24.7,29.71,WSW,248,9.2,9.2,21,0.00,,,0.00,WUHU216HW,2013-04-17 13:55:00,
2013-04-17 08:00:00,65.9,25.7,29.71,SW,225,3.6,9.2,22,0.00,,,0.00,WUHU216HW,2013-04-17 14:00:00,
2013-04-17 08:05:00,66.1,25.8,29.71,WSW,248,5.8,7.8,22,0.00,,,0.00,WUHU216HW,2013-04-17 14:05:00,
2013-04-17 08:10:00,66.1,25.8,29.71,WSW,248,6.0,7.4,22,0.00,,,0.00,WUHU216HW,2013-04-17 14:10:00,
2013-04-17 08:15:00,66.6,26.3,29.72,WSW,248,10.3,10.3,22,0.00,,,0.00,WUHU216HW,2013-04-17 14:15:00,
2013-04-17 08:20:00,69.1,27.5,29.72,West,270,6.5,11.0,21,0.00,,,0.00,WUHU216HW,2013-04-17 14:20:00,
2013-04-17 08:25:00,74.3,29.2,29.72,WSW,248,5.1,11.0,19,0.00,,,0.00,WUHU216HW,2013-04-17 14:25:00,
2013-04-17 08:30:00,75.8,28.6,29.72,West,270,5.6,7.4,18,0.00,,,0.00,WUHU216HW,2013-04-17 14:30:00,
2013-04-17 08:35:00,75.2,28.2,29.72,SW,225,6.3,8.9,18,0.00,,,0.00,WUHU216HW,2013-04-17 14:35:00,
2013-04-17 08:40:00,74.3,27.5,29.72,WSW,248,6.7,10.3,18,0.00,,,0.00,WUHU216HW,2013-04-17 14:40:00,
2013-04-17 08:45:00,74.0,27.2,29.71,WSW,248,5.4,10.3,18,0.00,,,0.00,WUHU216HW,2013-04-17 14:45:00,
2013-04-17 08:50:00,74.5,27.6,29.71,WSW,248,5.4,8.5,18,0.00,,,0.00,WUHU216HW,2013-04-17 14:50:00,
2013-04-17 08:55:00,76.3,29.1,29.71,West,270,5.4,6.3,18,0.00,,,0.00,WUHU216HW,2013-04-17 14:55:00,
2013-04-17 09:00:00,77.4,28.3,29.71,West,270,2.9,5.4,17,0.00,,,0.00,WUHU216HW,2013-04-17 15:00:00,
2013-04-17 09:05:00,77.8,28.5,29.71,WSW,248,4.9,5.4,17,0.00,,,0.00,WUHU216HW,2013-04-17 15:05:00,
2013-04-17 09:10:00,78.1,28.8,29.71,WSW,248,1.1,4.9,17,0.00,,,0.00,WUHU216HW,2013-04-17 15:10:00,
2013-04-17 09:15:00,78.3,29.0,29.71,WSW,248,4.9,4.9,17,0.00,,,0.00,WUHU216HW,2013-04-17 15:15:00,
2013-04-17 09:20:00,78.7,27.5,29.71,West,270,4.9,5.8,16,0.00,,,0.00,WUHU216HW,2013-04-17 15:20:00,
2013-04-17 09:25:00,78.8,27.7,29.71,SW,225,1.8,5.8,16,0.00,,,0.00,WUHU216HW,2013-04-17 15:25:00,
2013-04-17 09:30:00,79.0,27.8,29.71,SW,225,0.2,4.9,16,0.00,,,0.00,WUHU216HW,2013-04-17 15:30:00,
2013-04-17 09:35:00,79.0,27.8,29.71,WSW,248,2.7,2.7,16,0.00,,,0.00,WUHU216HW,2013-04-17 15:35:00,
2013-04-17 09:40:00,79.2,28.0,29.71,SSW,203,3.1,4.0,16,0.00,,,0.00,WUHU216HW,2013-04-17 15:40:00,
2013-04-17 09:45:00,79.6,28.3,29.71,WSW,248,3.1,4.0,16,0.00,,,0.00,WUHU216HW,2013-04-17 15:45:00,
2013-04-17 09:50:00,79.9,28.6,29.70,WSW,248,2.9,3.8,16,0.00,,,0.00,WUHU216HW,2013-04-17 15:50:00,
2013-04-17 09:55:00,80.1,28.8,29.70,SW,225,0.2,3.4,16,0.00,,,0.00,WUHU216HW,2013-04-17 15:55:00,
2013-04-17 10:00:00,80.1,27.1,29.70,SW,225,3.4,4.3,15,0.00,,,0.00,WUHU216HW,2013-04-17 16:00:00,
2013-04-17 10:05:00,80.3,27.3,29.70,SE,135,4.0,4.7,15,0.00,,,0.00,WUHU216HW,2013-04-17 16:05:00,
2013-04-17 10:10:00,80.5,27.4,29.70,WSW,248,3.4,6.3,15,0.00,,,0.00,WUHU216HW,2013-04-17 16:10:00,
2013-04-17 10:15:00,80.6,24.1,29.70,SE,135,7.8,9.2,13,0.00,,,0.00,WUHU216HW,2013-04-17 16:15:00,
2013-04-17 10:20:00,80.6,24.1,29.70,South,180,6.3,9.2,13,0.00,,,0.00,WUHU216HW,2013-04-17 16:20:00,
2013-04-17 10:25:00,80.8,24.3,29.70,WSW,248,9.6,9.6,13,0.00,,,0.00,WUHU216HW,2013-04-17 16:25:00,
2013-04-17 10:30:00,81.2,24.6,29.70,SW,225,11.4,11.4,13,0.00,,,0.00,WUHU216HW,2013-04-17 16:30:00,
2013-04-17 10:35:00,81.2,22.9,29.69,SW,225,8.5,11.4,12,0.00,,,0.00,WUHU216HW,2013-04-17 16:35:00,
2013-04-17 10:40:00,81.4,23.0,29.69,WSW,248,9.2,15.0,12,0.00,,,0.00,WUHU216HW,2013-04-17 16:40:00,
2013-04-17 10:45:00,81.4,23.0,29.69,West,270,12.1,15.0,12,0.00,,,0.00,WUHU216HW,2013-04-17 16:45:00,
2013-04-17 10:50:00,81.5,23.2,29.69,SW,225,8.3,13.2,12,0.00,,,0.00,WUHU216HW,2013-04-17 16:50:00,
2013-04-17 10:55:00,81.5,23.2,29.69,SW,225,4.7,13.2,12,0.00,,,0.00,WUHU216HW,2013-04-17 16:55:00,
2013-04-17 11:00:00,81.7,23.3,29.69,SW,225,9.6,11.0,12,0.00,,,0.00,WUHU216HW,2013-04-17 17:00:00,
2013-04-17 11:05:00,81.7,23.3,29.69,WSW,248,8.3,11.0,12,0.00,,,0.00,WUHU216HW,2013-04-17 17:05:00,
2013-04-17 11:10:00,81.7,23.3,29.68,SW,225,6.9,10.7,12,0.00,,,0.00,WUHU216HW,2013-04-17 17:10:00,
2013-04-17 11:15:00,81.9,21.8,29.69,WSW,248,11.4,11.4,11,0.00,,,0.00,WUHU216HW,2013-04-17 17:15:00,
2013-04-17 11:20:00,82.1,22.0,29.69,SSW,203,9.6,11.4,11,0.00,,,0.00,WUHU216HW,2013-04-17 17:20:00,
2013-04-17 11:25:00,82.1,22.0,29.68,SW,225,11.2,15.0,11,0.00,,,0.00,WUHU216HW,2013-04-17 17:25:00,
2013-04-17 11:30:00,82.1,22.0,29.68,SW,225,14.1,15.0,11,0.00,,,0.00,WUHU216HW,2013-04-17 17:30:00,
2013-04-17 11:35:00,81.9,21.8,29.68,SW,225,10.5,14.1,11,0.00,,,0.00,WUHU216HW,2013-04-17 17:35:00,
2013-04-17 11:40:00,82.1,22.0,29.67,SW,225,6.9,12.3,11,0.00,,,0.00,WUHU216HW,2013-04-17 17:40:00,
2013-04-17 11:45:00,82.1,22.0,29.67,WSW,248,11.0,12.3,11,0.00,,,0.00,WUHU216HW,2013-04-17 17:45:00,
2013-04-17 11:50:00,82.4,20.5,29.67,SE,135,10.1,11.6,10,0.00,,,0.00,WUHU216HW,2013-04-17 17:50:00,
2013-04-17 11:55:00,82.6,20.6,29.67,SW,225,11.6,11.6,10,0.00,,,0.00,WUHU216HW,2013-04-17 17:55:00,
2013-04-17 12:00:00,82.8,20.8,29.67,WSW,248,11.2,14.3,10,0.00,,,0.00,WUHU216HW,2013-04-17 18:00:00,
2013-04-17 12:05:00,82.8,20.8,29.66,SW,225,13.4,19.0,10,0.00,,,0.00,WUHU216HW,2013-04-17 18:05:00,
2013-04-17 12:10:00,83.0,20.9,29.66,West,270,13.4,19.0,10,0.00,,,0.00,WUHU216HW,2013-04-17 18:10:00,
2013-04-17 12:15:00,83.3,21.2,29.65,WSW,248,8.3,13.4,8,0.00,,,0.00,WUHU216HW,2013-04-17 18:15:00,
2013-04-17 12:20:00,83.3,21.2,29.65,WSW,248,12.5,14.5,8,0.00,,,0.00,WUHU216HW,2013-04-17 18:20:00,
2013-04-17 12:25:00,83.2,21.1,29.65,SW,225,12.3,17.9,8,0.00,,,0.00,WUHU216HW,2013-04-17 18:25:00,
2013-04-17 12:30:00,83.5,21.2,29.65,WSW,248,19.2,19.2,8,0.00,,,0.00,WUHU216HW,2013-04-17 18:30:00,
2013-04-17 12:35:00,83.5,21.2,29.65,WSW,248,11.0,19.2,8,0.00,,,0.00,WUHU216HW,2013-04-17 18:35:00,
2013-04-17 12:40:00,83.5,21.2,29.64,SW,225,11.4,15.7,8,0.00,,,0.00,WUHU216HW,2013-04-17 18:40:00,
2013-04-17 12:45:00,83.7,21.4,29.64,West,270,10.1,15.7,8,0.00,,,0.00,WUHU216HW,2013-04-17 18:45:00,
2013-04-17 12:50:00,83.9,21.5,29.64,West,270,9.2,14.8,8,0.00,,,0.00,WUHU216HW,2013-04-17 18:50:00,
2013-04-17 12:55:00,84.1,21.7,29.63,WSW,248,10.1,14.8,8,0.00,,,0.00,WUHU216HW,2013-04-17 18:55:00,
2013-04-17 13:00:00,84.2,21.8,29.63,SW,225,9.8,14.1,8,0.00,,,0.00,WUHU216HW,2013-04-17 19:00:00,
2013-04-17 13:05:00,84.4,22.0,29.63,WSW,248,15.0,15.0,8,0.00,,,0.00,WUHU216HW,2013-04-17 19:05:00,
2013-04-17 13:10:00,84.2,21.8,29.63,WSW,248,9.6,15.0,8,0.00,,,0.00,WUHU216HW,2013-04-17 19:10:00,
2013-04-17 13:15:00,84.2,21.8,29.63,WSW,248,14.1,19.2,7,0.00,,,0.00,WUHU216HW,2013-04-17 19:15:00,
2013-04-17 13:20:00,84.2,21.8,29.62,WSW,248,16.6,19.2,7,0.00,,,0.00,WUHU216HW,2013-04-17 19:20:00,
2013-04-17 13:25:00,84.1,21.7,29.62,WSW,248,15.0,17.2,7,0.00,,,0.00,WUHU216HW,2013-04-17 19:25:00,
2013-04-17 13:30:00,83.7,21.4,29.62,WSW,248,11.0,19.5,7,0.00,,,0.00,WUHU216HW,2013-04-17 19:30:00,
2013-04-17 13:35:00,83.7,21.4,29.62,WSW,248,17.4,19.5,7,0.00,,,0.00,WUHU216HW,2013-04-17 19:35:00,
2013-04-17 13:40:00,83.3,21.2,29.62,West,270,19.2,21.5,7,0.00,,,0.00,WUHU216HW,2013-04-17 19:40:00,
2013-04-17 13:45:00,83.3,21.2,29.62,WSW,248,13.0,21.5,7,0.00,,,0.00,WUHU216HW,2013-04-17 19:45:00,
2013-04-17 13:50:00,83.3,21.2,29.61,SSW,203,11.6,18.8,7,0.00,,,0.00,WUHU216HW,2013-04-17 19:50:00,
2013-04-17 13:55:00,83.5,21.2,29.60,SSW,203,9.4,15.0,7,0.00,,,0.00,WUHU216HW,2013-04-17 19:55:00,
2013-04-17 14:00:00,83.7,21.4,29.60,WSW,248,14.1,19.5,7,0.00,,,0.00,WUHU216HW,2013-04-17 20:00:00,
2013-04-17 14:05:00,83.7,21.4,29.60,WSW,248,13.9,19.5,7,0.00,,,0.00,WUHU216HW,2013-04-17 20:05:00,
2013-04-17 14:10:00,84.1,21.7,29.60,WSW,248,17.7,17.9,7,0.00,,,0.00,WUHU216HW,2013-04-17 20:10:00,
2013-04-17 14:15:00,84.2,21.8,29.60,WSW,248,20.8,20.8,7,0.00,,,0.00,WUHU216HW,2013-04-17 20:15:00,
2013-04-17 14:20:00,84.2,21.8,29.60,West,270,18.8,20.8,7,0.00,,,0.00,WUHU216HW,2013-04-17 20:20:00,
2013-04-17 14:25:00,84.4,22.0,29.60,West,270,21.0,22.4,7,0.00,,,0.00,WUHU216HW,2013-04-17 20:25:00,
2013-04-17 14:30:00,84.6,22.1,29.60,West,270,20.1,22.4,7,0.00,,,0.00,WUHU216HW,2013-04-17 20:30:00,
2013-04-17 14:35:00,84.2,21.8,29.60,WSW,248,20.6,27.7,7,0.00,,,0.00,WUHU216HW,2013-04-17 20:35:00,
2013-04-17 14:40:00,84.2,21.8,29.60,SW,225,25.9,27.7,7,0.00,,,0.00,WUHU216HW,2013-04-17 20:40:00,
2013-04-17 14:45:00,83.9,21.5,29.60,SSW,203,28.2,31.1,6,0.00,,,0.00,WUHU216HW,2013-04-17 20:45:00,
2013-04-17 14:50:00,83.7,21.4,29.59,WSW,248,17.9,31.1,7,0.00,,,0.00,WUHU216HW,2013-04-17 20:50:00,
2013-04-17 14:55:00,83.9,21.5,29.59,WSW,248,26.4,26.4,6,0.00,,,0.00,WUHU216HW,2013-04-17 20:55:00,
2013-04-17 15:00:00,83.7,21.4,29.60,WSW,248,18.6,26.8,7,0.00,,,0.00,WUHU216HW,2013-04-17 21:00:00,
2013-04-17 15:05:00,83.7,21.4,29.59,West,270,20.4,26.8,7,0.00,,,0.00,WUHU216HW,2013-04-17 21:05:00,
2013-04-17 15:10:00,83.9,21.5,29.59,WSW,248,18.8,20.4,7,0.00,,,0.00,WUHU216HW,2013-04-17 21:10:00,
2013-04-17 15:15:00,84.1,21.7,29.59,WSW,248,17.4,19.2,7,0.00,,,0.00,WUHU216HW,2013-04-17 21:15:00,
2013-04-17 15:20:00,83.9,21.5,29.59,West,270,17.4,25.5,8,0.00,,,0.00,WUHU216HW,2013-04-17 21:20:00,
2013-04-17 15:25:00,83.9,21.5,29.59,WSW,248,18.3,26.4,8,0.00,,,0.00,WUHU216HW,2013-04-17 21:25:00,
2013-04-17 15:30:00,83.7,21.4,29.58,West,270,18.1,26.4,8,0.00,,,0.00,WUHU216HW,2013-04-17 21:30:00,
2013-04-17 15:35:00,83.5,21.2,29.59,West,270,26.6,27.1,8,0.00,,,0.00,WUHU216HW,2013-04-17 21:35:00,
2013-04-17 15:40:00,83.3,21.2,29.59,WSW,248,14.3,27.1,8,0.00,,,0.00,WUHU216HW,2013-04-17 21:40:00,
2013-04-17 15:45:00,83.2,21.1,29.59,WSW,248,21.5,25.5,8,0.00,,,0.00,WUHU216HW,2013-04-17 21:45:00,
2013-04-17 15:50:00,83.0,20.9,29.59,West,270,19.2,25.5,8,0.00,,,0.00,WUHU216HW,2013-04-17 21:50:00,
2013-04-17 15:55:00,82.8,20.8,29.59,WSW,248,20.8,22.8,8,0.00,,,0.00,WUHU216HW,2013-04-17 21:55:00,
2013-04-17 16:00:00,82.8,20.8,29.59,West,270,23.5,23.5,8,0.00,,,0.00,WUHU216HW,2013-04-17 22:00:00,
2013-04-17 16:05:00,82.6,20.6,29.59,WSW,248,22.4,25.3,8,0.00,,,0.00,WUHU216HW,2013-04-17 22:05:00,
2013-04-17 16:10:00,82.4,20.5,29.59,WSW,248,17.2,25.3,8,0.00,,,0.00,WUHU216HW,2013-04-17 22:10:00,
2013-04-17 16:15:00,82.3,20.3,29.59,SW,225,16.1,24.2,8,0.00,,,0.00,WUHU216HW,2013-04-17 22:15:00,
2013-04-17 16:20:00,82.1,20.3,29.59,WSW,248,20.8,24.2,8,0.00,,,0.00,WUHU216HW,2013-04-17 22:20:00,
2013-04-17 16:25:00,81.7,20.0,29.59,SW,225,16.8,24.2,8,0.00,,,0.00,WUHU216HW,2013-04-17 22:25:00,
2013-04-17 16:30:00,81.7,20.0,29.59,WSW,248,13.6,23.7,10,0.00,,,0.00,WUHU216HW,2013-04-17 22:30:00,
2013-04-17 16:35:00,81.7,20.0,29.59,West,270,15.4,23.0,10,0.00,,,0.00,WUHU216HW,2013-04-17 22:35:00,
2013-04-17 16:39:00,81.7,20.0,29.59,WSW,248,19.2,23.0,10,0.00,,,0.00,WUHU216HW,2013-04-17 22:39:00,
2013-04-17 16:44:00,81.5,19.8,29.59,WSW,248,15.7,25.3,10,0.00,,,0.00,WUHU216HW,2013-04-17 22:44:00,
2013-04-17 16:49:00,81.4,19.6,29.59,WSW,248,16.3,25.3,10,0.00,,,0.00,WUHU216HW,2013-04-17 22:49:00,
2013-04-17 16:54:00,81.0,19.4,29.59,WNW,293,13.2,24.8,10,0.00,,,0.00,WUHU216HW,2013-04-17 22:54:00,
2013-04-17 16:59:00,81.0,19.4,29.59,WSW,248,26.2,26.2,10,0.00,,,0.00,WUHU216HW,2013-04-17 22:59:00,
2013-04-17 17:04:00,80.8,19.3,29.59,West,270,23.5,26.2,10,0.00,,,0.00,WUHU216HW,2013-04-17 23:04:00,
2013-04-17 17:09:00,80.5,18.9,29.60,WSW,248,20.1,29.3,10,0.00,,,0.00,WUHU216HW,2013-04-17 23:09:00,
2013-04-17 17:14:00,80.3,18.8,29.60,WSW,248,12.5,29.3,10,0.00,,,0.00,WUHU216HW,2013-04-17 23:14:00,
2013-04-17 17:19:00,80.3,18.8,29.60,WSW,248,27.7,29.3,10,0.00,,,0.00,WUHU216HW,2013-04-17 23:19:00,
2013-04-17 17:24:00,80.1,18.6,29.60,WSW,248,20.8,27.7,10,0.00,,,0.00,WUHU216HW,2013-04-17 23:24:00,
2013-04-17 17:29:00,79.7,18.4,29.60,WSW,248,19.2,28.9,10,0.00,,,0.00,WUHU216HW,2013-04-17 23:29:00,
2013-04-17 17:34:00,79.6,18.2,29.60,WSW,248,19.7,28.9,10,0.00,,,0.00,WUHU216HW,2013-04-17 23:34:00,
2013-04-17 17:39:00,79.4,18.1,29.60,WSW,248,21.0,28.4,10,0.00,,,0.00,WUHU216HW,2013-04-17 23:39:00,
2013-04-17 17:44:00,79.2,19.6,29.61,WSW,248,21.5,28.4,11,0.00,,,0.00,WUHU216HW,2013-04-17 23:44:00,
2013-04-17 17:49:00,79.2,19.6,29.60,WSW,248,19.7,25.5,11,0.00,,,0.00,WUHU216HW,2013-04-17 23:49:00,
2013-04-17 17:54:00,78.8,21.0,29.61,SW,225,23.7,30.0,12,0.00,,,0.00,WUHU216HW,2013-04-17 23:54:00,
2013-04-17 17:59:00,78.7,20.9,29.61,WNW,293,19.5,30.0,12,0.00,,,0.00,WUHU216HW,2013-04-17 23:59:00,
2013-04-17 18:04:00,78.5,20.7,29.60,West,270,21.5,23.3,12,0.00,,,0.00,WUHU216HW,2013-04-18 00:04:00,
2013-04-17 18:09:00,78.5,20.7,29.61,WSW,248,15.2,22.6,12,0.00,,,0.00,WUHU216HW,2013-04-18 00:09:00,
2013-04-17 18:14:00,77.9,20.3,29.62,West,270,21.5,23.0,12,0.00,,,0.00,WUHU216HW,2013-04-18 00:14:00,
2013-04-17 18:19:00,77.8,21.9,29.62,WSW,248,14.8,23.0,13,0.00,,,0.00,WUHU216HW,2013-04-18 00:19:00,
2013-04-17 18:24:00,77.4,21.6,29.62,WSW,248,20.8,22.4,13,0.00,,,0.00,WUHU216HW,2013-04-18 00:24:00,
2013-04-17 18:29:00,77.2,21.5,29.62,West,270,21.5,25.5,13,0.00,,,0.00,WUHU216HW,2013-04-18 00:29:00,
2013-04-17 18:34:00,76.7,21.1,29.63,West,270,17.2,25.5,13,0.00,,,0.00,WUHU216HW,2013-04-18 00:34:00,
2013-04-17 18:39:00,76.5,20.9,29.63,SW,225,18.1,24.4,13,0.00,,,0.00,WUHU216HW,2013-04-18 00:39:00,
2013-04-17 18:44:00,76.5,20.9,29.63,West,270,13.4,22.8,13,0.00,,,0.00,WUHU216HW,2013-04-18 00:44:00,
2013-04-17 18:49:00,76.1,23.9,29.63,West,270,15.7,21.0,15,0.00,,,0.00,WUHU216HW,2013-04-18 00:49:00,
2013-04-17 18:54:00,76.0,22.1,29.63,WSW,248,18.8,30.4,14,0.00,,,0.00,WUHU216HW,2013-04-18 00:54:00,
2013-04-17 18:59:00,75.6,21.9,29.64,West,270,15.4,30.4,14,0.00,,,0.00,WUHU216HW,2013-04-18 00:59:00,
2013-04-17 19:04:00,75.2,21.6,29.65,West,270,18.1,22.4,14,0.00,,,0.00,WUHU216HW,2013-04-18 01:04:00,
2013-04-17 19:09:00,74.5,22.7,29.65,WNW,293,17.2,22.4,15,0.00,,,0.00,WUHU216HW,2013-04-18 01:09:00,
2013-04-17 19:14:00,74.2,22.4,29.65,WSW,248,15.2,20.1,15,0.00,,,0.00,WUHU216HW,2013-04-18 01:14:00,
2013-04-17 19:19:00,74.0,22.3,29.66,West,270,21.3,21.3,15,0.00,,,0.00,WUHU216HW,2013-04-18 01:19:00,
2013-04-17 19:24:00,73.1,21.6,29.66,West,270,15.4,21.3,15,0.00,,,0.00,WUHU216HW,2013-04-18 01:24:00,
2013-04-17 19:29:00,72.7,21.2,29.67,West,270,12.1,19.7,15,0.00,,,0.00,WUHU216HW,2013-04-18 01:29:00,
2013-04-17 19:34:00,72.0,20.6,29.67,WSW,248,17.2,18.3,15,0.00,,,0.00,WUHU216HW,2013-04-18 01:34:00,
2013-04-17 19:39:00,71.6,22.0,29.67,NW,315,12.8,17.4,16,0.00,,,0.00,WUHU216HW,2013-04-18 01:39:00,
2013-04-17 19:44:00,71.1,21.5,29.68,West,270,9.6,18.8,16,0.00,,,0.00,WUHU216HW,2013-04-18 01:44:00,
2013-04-17 19:49:00,70.7,21.2,29.68,WNW,293,14.8,19.2,16,0.00,,,0.00,WUHU216HW,2013-04-18 01:49:00,
2013-04-17 19:54:00,70.2,20.8,29.69,WNW,293,17.2,19.2,16,0.00,,,0.00,WUHU216HW,2013-04-18 01:54:00,
2013-04-17 19:59:00,69.8,20.5,29.69,West,270,10.5,17.2,16,0.00,,,0.00,WUHU216HW,2013-04-18 01:59:00,
2013-04-17 20:04:00,69.5,20.3,29.70,WNW,293,8.7,17.2,16,0.00,,,0.00,WUHU216HW,2013-04-18 02:04:00,
2013-04-17 20:09:00,69.3,20.1,29.70,West,270,19.2,19.2,16,0.00,,,0.00,WUHU216HW,2013-04-18 02:09:00,
2013-04-17 20:14:00,68.9,19.8,29.70,WSW,248,21.0,21.0,16,0.00,,,0.00,WUHU216HW,2013-04-18 02:14:00,
2013-04-17 20:19:00,68.6,19.5,29.71,NW,315,21.5,21.5,16,0.00,,,0.00,WUHU216HW,2013-04-18 02:19:00,
2013-04-17 20:24:00,68.2,19.3,29.71,West,270,20.4,21.5,16,0.00,,,0.00,WUHU216HW,2013-04-18 02:24:00,
2013-04-17 20:29:00,67.9,19.0,29.72,West,270,15.2,20.4,16,0.00,,,0.00,WUHU216HW,2013-04-18 02:29:00,
2013-04-17 20:34:00,67.7,18.8,29.72,West,270,17.4,18.8,16,0.00,,,0.00,WUHU216HW,2013-04-18 02:34:00,
2013-04-17 20:39:00,67.5,18.7,29.72,WSW,248,15.7,18.8,16,0.00,,,0.00,WUHU216HW,2013-04-18 02:39:00,
2013-04-17 20:44:00,67.3,18.6,29.73,West,270,7.6,15.7,16,0.00,,,0.00,WUHU216HW,2013-04-18 02:44:00,
2013-04-17 20:49:00,67.3,18.6,29.74,WSW,248,13.4,14.1,16,0.00,,,0.00,WUHU216HW,2013-04-18 02:49:00,
2013-04-17 20:54:00,67.0,16.7,29.74,West,270,17.0,17.0,15,0.00,,,0.00,WUHU216HW,2013-04-18 02:54:00,
2013-04-17 20:59:00,66.6,16.3,29.75,WNW,293,12.8,17.0,15,0.00,,,0.00,WUHU216HW,2013-04-18 02:59:00,
2013-04-17 21:04:00,66.2,16.0,29.75,WNW,293,16.8,20.1,15,0.00,,,0.00,WUHU216HW,2013-04-18 03:04:00,
2013-04-17 21:09:00,66.2,16.0,29.75,SW,225,13.9,20.1,15,0.00,,,0.00,WUHU216HW,2013-04-18 03:09:00,
2013-04-17 21:14:00,65.9,15.8,29.76,WNW,293,7.6,14.3,15,0.00,,,0.00,WUHU216HW,2013-04-18 03:14:00,
2013-04-17 21:19:00,65.7,17.2,29.76,West,270,14.1,14.3,16,0.00,,,0.00,WUHU216HW,2013-04-18 03:19:00,
2013-04-17 21:24:00,65.3,16.9,29.77,WSW,248,20.1,20.1,16,0.00,,,0.00,WUHU216HW,2013-04-18 03:24:00,
2013-04-17 21:29:00,64.6,16.3,29.78,NW,315,10.5,27.3,16,0.00,,,0.00,WUHU216HW,2013-04-18 03:29:00,
2013-04-17 21:34:00,64.4,16.2,29.78,WNW,293,16.8,27.3,16,0.00,,,0.00,WUHU216HW,2013-04-18 03:34:00,
2013-04-17 21:39:00,64.3,16.0,29.78,NW,315,9.2,16.8,16,0.00,,,0.00,WUHU216HW,2013-04-18 03:39:00,
2013-04-17 21:44:00,64.1,15.9,29.79,WSW,248,10.7,14.3,16,0.00,,,0.00,WUHU216HW,2013-04-18 03:44:00,
2013-04-17 21:49:00,64.1,15.9,29.79,NW,315,9.2,14.1,16,0.00,,,0.00,WUHU216HW,2013-04-18 03:49:00,
2013-04-17 21:54:00,63.9,15.8,29.79,NW,315,10.5,13.0,16,0.00,,,0.00,WUHU216HW,2013-04-18 03:54:00,
2013-04-17 21:59:00,63.9,15.8,29.79,West,270,8.5,13.9,16,0.00,,,0.00,WUHU216HW,2013-04-18 03:59:00,
2013-04-17 22:01:00,63.7,15.7,29.79,NW,315,13.6,13.9,16,0.00,,,0.00,WUHU216HW,2013-04-18 04:01:00,
2013-04-17 22:06:00,63.7,15.7,29.79,NW,315,6.9,18.6,16,0.00,,,0.00,WUHU216HW,2013-04-18 04:06:00,
2013-04-17 22:11:00,63.5,15.5,29.80,NW,315,12.8,19.0,16,0.00,,,0.00,WUHU216HW,2013-04-18 04:11:00,
2013-04-17 22:16:00,63.5,15.5,29.80,NW,315,7.2,19.0,16,0.00,,,0.00,WUHU216HW,2013-04-18 04:16:00,
2013-04-17 22:21:00,63.4,15.3,29.80,NW,315,22.4,22.4,16,0.00,,,0.00,WUHU216HW,2013-04-18 04:21:00,
2013-04-17 22:26:00,63.0,15.0,29.80,NW,315,21.5,22.4,16,0.00,,,0.00,WUHU216HW,2013-04-18 04:26:00,
2013-04-17 22:31:00,62.8,15.0,29.80,NW,315,14.1,22.4,16,0.00,,,0.00,WUHU216HW,2013-04-18 04:31:00,
2013-04-17 22:36:00,62.6,14.8,29.80,NW,315,8.5,16.3,16,0.00,,,0.00,WUHU216HW,2013-04-18 04:36:00,
2013-04-17 22:41:00,62.6,14.8,29.80,NW,315,15.7,17.2,16,0.00,,,0.00,WUHU216HW,2013-04-18 04:41:00,
2013-04-17 22:46:00,62.3,14.5,29.80,WNW,293,17.4,17.4,16,0.00,,,0.00,WUHU216HW,2013-04-18 04:46:00,
2013-04-17 22:51:00,62.3,14.5,29.80,NW,315,14.1,17.4,16,0.00,,,0.00,WUHU216HW,2013-04-18 04:51:00,
2013-04-17 22:57:00,61.9,14.2,29.80,West,270,22.1,22.1,16,0.00,,,0.00,WUHU216HW,2013-04-18 04:57:00,
2013-04-17 23:01:00,61.7,14.0,29.80,NW,315,19.2,22.1,16,0.00,,,0.00,WUHU216HW,2013-04-18 05:01:00,
2013-04-17 23:07:00,61.6,14.0,29.80,West,270,16.3,19.2,16,0.00,,,0.00,WUHU216HW,2013-04-18 05:07:00,
2013-04-17 23:12:00,61.6,14.0,29.80,NW,315,15.0,19.5,16,0.00,,,0.00,WUHU216HW,2013-04-18 05:12:00,
2013-04-17 23:17:00,61.2,13.7,29.80,WNW,293,15.4,19.5,16,0.00,,,0.00,WUHU216HW,2013-04-18 05:17:00,
2013-04-17 23:22:00,61.2,13.7,29.80,NW,315,18.3,22.4,16,0.00,,,0.00,WUHU216HW,2013-04-18 05:22:00,
2013-04-17 23:26:00,60.8,13.3,29.80,WNW,293,8.7,22.4,16,0.00,,,0.00,WUHU216HW,2013-04-18 05:26:00,
2013-04-17 23:31:00,61.0,13.5,29.81,NNW,338,9.4,17.4,16,0.00,,,0.00,WUHU216HW,2013-04-18 05:31:00,
2013-04-17 23:36:00,61.0,13.5,29.81,NW,315,12.5,14.1,16,0.00,,,0.00,WUHU216HW,2013-04-18 05:36:00,
2013-04-17 23:41:00,61.0,13.5,29.80,NW,315,11.2,17.2,16,0.00,,,0.00,WUHU216HW,2013-04-18 05:41:00,
2013-04-17 23:46:00,60.8,15.0,29.80,WNW,293,15.0,18.1,17,0.00,,,0.00,WUHU216HW,2013-04-18 05:46:00,
2013-04-17 23:51:00,60.8,15.0,29.81,NW,315,6.9,18.1,17,0.00,,,0.00,WUHU216HW,2013-04-18 05:51:00,
2013-04-17 23:57:00,60.8,15.0,29.81,NNW,338,7.2,13.6,17,0.00,,,0.00,WUHU216HW,2013-04-18 05:57:00,